Location: Beugnon
(47.6222°N, 3.7850°E)
Time: 23:15:13
(UTC+00:00)

Cosmos 1825 Rocket - Pass Details

Date: 09 April 2020
Orbit: 603 x 631 km, 82.5° (Epoch: 29 May)

Event Time Altitude Azimuth Distance (km) Brightness Sun altitude
Rises 19:02:35 0° 350° (N) 2,905 7.5 -6.7°
Reaches altitude 10° 19:04:50 10° 350° (N) 1,990 6.6 -7.0°
Maximum altitude 19:09:14 85° 263° (W) 622 3.6 -7.7°
Drops below altitude 10° 19:13:35 10° 174° (S) 1,957 5.9 -8.4°
Sets 19:15:46 0° 174° (S) 2,853 6.7 -8.7°
